TimeEDT,TemperatureF,Dew PointF,Humidity,Sea Level PressureIn,VisibilityMPH,Wind Direction,Wind SpeedMPH,Gust SpeedMPH,PrecipitationIn,Events,Conditions,WindDirDegrees,DateUTC
12:15 AM,57.2,57.2,100,30.21,10.0,Calm,Calm,-,N/A,,Clear,0,2013-05-27 04:15:00
12:35 AM,57.2,57.2,100,30.21,10.0,Calm,Calm,-,N/A,,Clear,0,2013-05-27 04:35:00
12:55 AM,57.2,57.2,100,30.21,10.0,Calm,Calm,-,N/A,,Clear,0,2013-05-27 04:55:00
1:15 AM,57.2,57.2,100,30.21,10.0,Calm,Calm,-,N/A,,Clear,0,2013-05-27 05:15:00
1:35 AM,57.2,57.2,100,30.21,10.0,Calm,Calm,-,N/A,,Clear,0,2013-05-27 05:35:00
1:55 AM,57.2,57.2,100,30.20,10.0,Calm,Calm,-,N/A,,Clear,0,2013-05-27 05:55:00
2:15 AM,57.2,57.2,100,30.20,10.0,Calm,Calm,-,N/A,,Clear,0,2013-05-27 06:15:00
2:35 AM,55.4,55.4,100,30.20,10.0,Calm,Calm,-,N/A,,Clear,0,2013-05-27 06:35:00
2:55 AM,55.4,55.4,100,30.20,10.0,Calm,Calm,-,N/A,,Clear,0,2013-05-27 06:55:00
3:15 AM,55.4,55.4,100,30.20,9.0,Calm,Calm,-,N/A,,Clear,0,2013-05-27 07:15:00
3:35 AM,55.4,55.4,100,30.19,10.0,Calm,Calm,-,N/A,,Clear,0,2013-05-27 07:35:00
3:55 AM,55.4,55.4,100,30.19,7.0,Calm,Calm,-,N/A,,Clear,0,2013-05-27 07:55:00
4:15 AM,55.4,55.4,100,30.19,9.0,Calm,Calm,-,N/A,,Clear,0,2013-05-27 08:15:00
4:35 AM,55.4,55.4,100,30.19,9.0,Calm,Calm,-,N/A,,Clear,0,2013-05-27 08:35:00
4:55 AM,55.4,55.4,100,30.19,8.0,Calm,Calm,-,N/A,,Clear,0,2013-05-27 08:55:00
5:15 AM,55.4,55.4,100,30.19,9.0,Calm,Calm,-,N/A,,Clear,0,2013-05-27 09:15:00
5:35 AM,55.4,55.4,100,30.19,8.0,Calm,Calm,-,N/A,,Clear,0,2013-05-27 09:35:00
5:55 AM,53.6,53.6,100,30.19,7.0,Calm,Calm,-,N/A,,Clear,0,2013-05-27 09:55:00
6:15 AM,53.6,53.6,100,30.20,7.0,Calm,Calm,-,N/A,,Clear,0,2013-05-27 10:15:00
6:35 AM,53.6,53.6,100,30.20,7.0,Calm,Calm,-,N/A,,Clear,0,2013-05-27 10:35:00
6:50 AM,53.6,53.6,100,30.21,7.0,Calm,Calm,-,N/A,,Clear,0,2013-05-27 10:50:00
7:50 AM,59.0,59.0,100,30.21,10.0,Calm,Calm,-,N/A,,Clear,0,2013-05-27 11:50:00
8:50 AM,69.8,59.0,68,30.22,10.0,Calm,Calm,-,N/A,,Clear,0,2013-05-27 12:50:00
9:50 AM,77.0,64.4,65,30.23,10.0,East,4.6,-,N/A,,Clear,90,2013-05-27 13:50:00
10:50 AM,77.0,62.6,61,30.23,10.0,East,4.6,-,N/A,,Clear,90,2013-05-27 14:50:00
11:50 AM,80.6,59.0,48,30.23,10.0,ESE,4.6,-,N/A,,Partly Cloudy,120,2013-05-27 15:50:00
12:50 PM,80.6,62.6,54,30.22,10.0,ENE,9.2,-,N/A,,Partly Cloudy,60,2013-05-27 16:50:00
1:50 PM,82.4,62.6,51,30.20,10.0,East,11.5,-,N/A,,Partly Cloudy,90,2013-05-27 17:50:00
2:50 PM,82.4,62.6,51,30.19,10.0,ESE,9.2,-,N/A,,Partly Cloudy,110,2013-05-27 18:50:00
3:50 PM,82.4,62.6,51,30.17,10.0,ESE,11.5,-,N/A,,Partly Cloudy,120,2013-05-27 19:50:00
4:50 PM,78.8,62.6,57,30.17,10.0,East,13.8,-,N/A,,Scattered Clouds,90,2013-05-27 20:50:00
5:50 PM,80.6,62.6,54,30.16,10.0,East,11.5,-,N/A,,Scattered Clouds,90,2013-05-27 21:50:00
6:50 PM,78.8,62.6,57,30.15,10.0,ESE,13.8,-,N/A,,Scattered Clouds,110,2013-05-27 22:50:00
7:50 PM,75.2,62.6,65,30.16,10.0,ESE,13.8,-,N/A,,Scattered Clouds,110,2013-05-27 23:50:00
8:15 PM,73.4,62.6,69,30.17,10.0,East,3.5,-,N/A,,Clear,100,2013-05-28 00:15:00
8:35 PM,73.4,62.6,69,30.17,10.0,ESE,3.5,-,N/A,,Partly Cloudy,120,2013-05-28 00:35:00
8:55 PM,73.4,64.4,73,30.17,10.0,East,3.5,-,N/A,,Partly Cloudy,90,2013-05-28 00:55:00
9:15 PM,71.6,62.6,73,30.18,10.0,East,3.5,-,N/A,,Clear,100,2013-05-28 01:15:00
9:35 PM,71.6,64.4,78,30.18,10.0,Calm,Calm,-,N/A,,Clear,0,2013-05-28 01:35:00
9:55 PM,69.8,64.4,83,30.19,10.0,Calm,Calm,-,N/A,,Clear,0,2013-05-28 01:55:00
10:15 PM,68.0,64.4,88,30.19,10.0,Calm,Calm,-,N/A,,Clear,0,2013-05-28 02:15:00
10:35 PM,68.0,64.4,88,30.20,10.0,Calm,Calm,-,N/A,,Clear,0,2013-05-28 02:35:00
10:55 PM,66.2,64.4,94,30.20,10.0,Calm,Calm,-,N/A,,Clear,0,2013-05-28 02:55:00
11:15 PM,64.4,64.4,100,30.20,10.0,Calm,Calm,-,N/A,,Clear,0,2013-05-28 03:15:00
11:35 PM,64.4,64.4,100,30.20,10.0,Calm,Calm,-,N/A,,Clear,0,2013-05-28 03:35:00
11:55 PM,64.4,64.4,100,30.20,10.0,Calm,Calm,-,N/A,,Clear,0,2013-05-28 03:55:00